Location: Br�ttisellen
(47.4227°N, 8.6287°E)
Time: 17:54:58
(UTC+00:00)

Iridium 2 - Pass Details

Date: 09 April 2020
Orbit: 502 x 518 km, 85.5° (Epoch: 25 May)

Event Time Altitude Azimuth Distance (km) Brightness Sun altitude
Exits shadow 19:33:19 26° 129° (SE) 1,046 4.6 -14.4°
Maximum altitude 19:34:41 34° 88° (E) 861 4.4 -14.6°
Drops below altitude 10° 19:38:12 10° 22° (NNE) 1,760 6.5 -15.1°
Sets 19:40:27 0° 13° (NNE) 2,654 7.5 -15.5°
